RH
39 54 54 38 99 86 94 63 83 100 80 100 91 76 61 71 75 79 59 48 50 67 78 77 30 16 36 36 19 16 28 47 34 24 22 16 12 24 47 61 50 54 47 53 73 64 56 72 69
38 41 45 57 65 100 100 100 100 100 100 100 100 100 95 81 90 100 69 26 42 67 64 72 23 16 37 28 15 19 40 36 30 25 19 13 14 34 41 69 50 52 58 100 85 56 72 84 71
47 45 54 71 92 100 100 93 100 100 100 90 48 66 75 73 64 90 27 23 34 53 63 59 25 19 30 18 15 33 43 36 32 25 17 13 18 26 55 68 57 51 80 57 50 70 91 75 54
34 40 70 86 96 80 95 90 100 100 83 63 51 53 58 68 64 85 28 24 29 54 55 47 23 21 20 14 16 40 27 43 32 26 18 12 18 25 40 52 48 53 52 56 44 30 27 27 22
25 50 65 83 86 96 98 100 100 98 100 82 63 57 68 71 70 47 26 25 25 57 32 34 20 22 17 11 19 25 34 50 35 27 26 15 17 20 24 28 25 28 36 31 28 24 19 21 20
22 28 37 35 55 89 80 78 63 62 35 75 58 61 72 77 56 34 25 22 18 37 30 29 16 10 12 10 22 33 35 35 39 26 26 19 18 22 23 21 22 26 31 31 33 30 20 16 20
29 34 91 100 100 84 98 90 53 36 40 49 54 53 76 45 37 29 22 18 20 30 29 13 13 11 9 18 33 37 24 32 29 26 28 40 24 22 25 25 27 30 35 34 38 38 26 23 16
28 29 100 95 100 84 100 84 91 51 43 44 35 27 25 26 19 18 18 15 23 26 18 15 11 13 13 28 37 32 21 25 52 100 100 93 97 23 21 24 24 29 41 56 42 47 35 31 22
16 57 100 100 100 94 99 99 82 34 19 26 39 33 19 20 13 14 10 12 12 11 9 14 9 10 28 31 35 24 17 100 85 100 85 48 27 43 40 31 32 34 38 32 43 46 51 36 27
16 26 100 98 100 100 80 85 41 56 30 21 9 9 10 10 10 10 10 9 11 10 12 11 8 17 30 31 34 19 32 99 71 99 100 32 29 32 27 28 21 27 17 17 28 33 26 21 17
13 35 28 44 73 67 48 35 55 98 55 37 9 12 10 9 9 10 11 13 14 11 16 9 9 23 30 37 34 17 51 97 68 98 80 54 39 56 100 98 38 38 24 20 17 16 15 17 17
8 7 24 23 20 21 17 23 67 80 58 37 42 27 10 10 10 15 14 11 13 17 12 8 17 22 39 53 24 20 17 70 95 100 94 74 43 52 100 80 63 92 76 22 20 16 21 22 32
8 8 7 8 13 13 12 14 83 84 76 35 62 9 10 11 14 14 10 17 28 16 9 10 18 26 51 54 19 20 13 27 99 66 34 52 28 42 75 98 62 66 20 21 21 24 26 30 37
9 8 8 10 11 20 66 61 52 54 35 45 16 10 9 13 15 11 24 37 28 11 9 10 22 34 55 35 19 21 12 17 56 62 52 38 44 50 63 53 42 36 20 26 32 34 31 31 35
10 11 9 8 8 29 100 10 10 11 12 21 23 9 11 17 14 27 44 30 13 10 9 11 26 48 37 19 20 17 16 18 39 56 46 36 37 32 46 37 22 20 24 26 30 41 47 43 45
12 11 12 9 10 24 32 12 11 10 10 12 12 12 17 20 12 31 30 27 26 11 10 11 30 37 21 19 23 18 20 29 38 44 42 39 36 67 55 37 28 27 26 25 26 26 33 35 56
13 13 11 11 13 14 12 12 10 11 11 28 77 12 12 24 13 28 21 31 25 12 11 14 32 34 18 19 21 20 22 29 41 34 45 54 47 70 47 44 31 30 25 24 28 26 28 32 44
12 12 11 11 12 14 13 13 13 13 12 94 98 90 53 16 17 29 22 33 30 12 10 17 28 22 19 20 18 25 26 31 46 41 33 38 45 56 81 63 44 29 28 28 28 27 26 27 41
12 12 13 15 14 15 15 17 14 12 11 100 100 95 95 61 14 15 22 32 32 12 10 20 25 18 20 23 21 30 29 26 47 60 28 30 53 73 65 66 52 30 33 37 38 26 25 28 31
14 14 14 15 18 19 18 16 11 12 14 100 100 100 81 100 75 11 21 28 33 14 10 20 25 18 20 23 26 32 24 21 34 63 66 100 80 58 62 96 88 55 33 26 28 30 25 24 28
16 16 15 14 18 19 18 14 13 11 13 99 99 100 82 100 40 13 16 23 32 16 11 20 23 20 24 23 23 26 21 20 22 24 38 100 85 81 39 83 78 46 45 45 24 24 24 23 25
17 20 16 13 14 17 17 17 13 14 13 46 94 100 51 31 49 56 12 22 29 28 12 23 23 22 25 24 26 25 22 20 22 21 20 32 95 100 42 39 44 43 44 45 29 22 21 24 26
26 20 18 16 14 14 15 17 18 18 16 14 15 21 18 40 86 96 18 21 24 35 14 17 26 24 22 26 23 25 24 22 21 22 21 21 23 27 31 64 31 25 36 34 37 27 23 24 26
25 20 18 17 16 14 20 19 18 18 18 16 14 16 9 71 100 48 29 19 22 30 20 13 25 24 20 26 24 22 21 20 20 21 21 22 20 20 20 26 26 29 21 34 22 22 21 22 23
25 20 17 17 20 23 20 20 12 12 15 16 17 18 16 24 91 84 98 47 19 22 29 12 20 20 19 20 26 24 20 18 18 18 19 20 19 19 19 18 24 19 20 19 20 20 21 22 22
33 31 23 29 36 24 22 18 11 10 10 12 14 14 16 18 18 71 68 15 24 23 34 14 16 24 20 20 30 29 20 18 19 19 18 16 15 16 16 18 18 19 20 22 26 26 22 20 19
34 26 31 37 39 32 25 14 10 8 10 12 12 12 15 23 26 16 16 11 17 30 36 20 14 30 22 22 25 32 20 16 14 16 16 13 13 13 12 13 18 22 24 37 61 50 31 30 30
32 35 29 29 32 31 24 15 11 8 9 9 9 9 21 35 32 23 22 14 9 20 34 23 16 27 27 24 28 29 17 17 20 27 32 26 19 16 15 19 28 29 29 34 44 53 54 46 32
33 27 30 28 27 24 22 19 15 9 8 8 9 8 19 34 43 38 28 18 10 9 22 24 18 21 32 26 29 26 18 20 26 27 32 31 24 21 19 29 35 38 33 32 34 32 26 22 21
37 35 39 34 25 25 22 19 15 10 9 8 8 9 10 40 39 47 41 27 14 10 9 18 19 20 31 27 33 33 28 30 32 32 28 27 26 24 24 30 38 40 41 37 32 28 27 22 26
Wind_Speed
16 15 11 8 5 6 10 5 10 9 14 15 17 20 22 27 32 24 30 35 34 31 37 37 37 34 21 12 14 8 10 8 11 13 13 12 10 3 10 17 18 13 9 8 5 5 8 7 7
14 12 10 9 5 11 5 2 17 14 15 16 18 24 28 28 28 28 31 36 30 33 38 38 37 30 14 7 11 9 8 8 13 13 16 16 11 7 15 19 17 13 9 7 6 9 6 4 8
15 14 13 11 12 16 9 11 14 20 22 22 23 26 28 28 33 35 33 35 31 35 37 36 36 25 11 8 6 9 6 10 13 14 19 22 16 20 23 20 19 14 8 3 8 8 8 5 5
15 15 15 17 17 22 22 20 24 23 22 23 22 26 30 31 32 35 36 36 34 35 36 33 31 18 12 8 7 8 4 10 13 16 22 22 28 27 24 21 16 9 3 5 8 11 9 9 10
14 13 14 16 18 21 25 26 25 26 26 26 29 32 32 34 36 36 36 33 34 32 34 32 26 15 10 6 9 6 5 8 12 15 17 23 28 29 25 22 19 16 16 15 15 19 20 18 17
14 18 17 20 23 26 24 25 23 25 27 33 34 34 36 39 36 36 36 35 34 32 31 27 19 11 3 7 10 5 7 8 11 16 18 23 22 25 23 20 19 17 16 16 22 22 24 25 25
16 17 15 17 8 30 31 31 25 27 27 31 37 36 36 36 39 37 40 36 32 30 28 19 13 5 4 9 10 4 9 10 12 17 19 19 20 18 18 18 18 16 18 19 21 23 25 25 27
22 21 14 11 19 9 11 34 33 28 29 33 36 39 39 41 42 38 35 34 30 28 25 12 7 4 11 8 9 5 8 12 17 20 17 16 19 18 16 16 16 16 14 15 15 19 19 23 26
27 25 27 26 19 18 19 20 24 30 33 34 36 39 41 38 35 34 33 29 26 24 19 5 1 9 12 10 6 4 11 20 19 19 18 21 23 21 18 20 18 17 15 15 15 17 18 21 23
37 43 34 27 31 33 36 30 33 37 41 38 36 35 32 30 32 31 27 28 28 22 7 2 7 12 10 10 5 7 13 16 15 21 21 20 23 23 27 31 27 30 28 26 24 23 24 25 24
42 48 53 50 47 52 47 39 29 29 32 34 28 27 29 28 24 27 30 34 21 9 4 6 11 12 10 8 5 9 13 16 18 18 21 16 20 22 27 28 32 39 38 34 33 32 32 32 32
37 48 53 53 53 52 49 41 32 29 22 20 24 22 20 20 23 29 31 18 5 7 8 12 13 12 13 8 5 11 15 16 20 20 19 15 18 22 21 21 25 28 31 32 33 32 36 36 39
16 32 44 51 53 50 47 40 33 26 25 22 21 16 17 21 27 30 12 2 6 9 11 13 13 12 11 7 6 11 16 19 23 18 24 21 23 26 25 28 21 24 33 34 34 35 36 36 38
14 16 26 35 38 29 20 22 27 28 29 20 19 16 16 20 24 16 2 1 4 10 14 14 13 13 12 7 9 13 14 20 20 22 22 25 24 23 28 27 26 31 31 32 34 33 34 33 33
18 16 16 21 30 32 25 14 13 13 15 15 15 14 15 18 18 3 2 2 7 9 14 14 15 14 11 10 12 15 15 19 22 22 23 25 27 30 30 26 27 28 29 28 25 26 25 25 25
22 21 21 20 23 29 28 17 16 15 13 12 10 11 14 19 15 8 3 7 8 9 14 13 16 14 10 11 16 18 17 19 20 24 26 27 27 27 25 26 25 23 20 21 18 18 20 14 15
25 28 26 23 24 25 24 19 20 16 12 15 9 11 11 17 13 7 11 10 8 10 15 13 16 12 10 14 20 21 19 18 19 21 22 24 26 26 28 25 23 22 18 15 19 21 26 24 13
38 33 29 28 29 28 27 25 24 15 12 12 12 11 12 14 11 13 12 9 7 11 17 15 16 13 12 16 20 21 17 18 20 20 20 20 21 21 22 21 19 17 17 19 20 22 28 29 22
40 35 31 32 31 32 29 27 24 19 14 9 24 15 15 17 14 8 16 12 9 12 19 17 16 15 14 16 20 17 16 17 17 16 17 17 17 16 15 16 16 16 16 16 18 22 22 24 27
42 39 36 36 33 32 31 31 26 21 23 19 27 11 14 13 17 6 16 15 10 12 21 20 19 16 16 16 18 17 16 18 17 15 15 14 13 14 12 14 13 14 15 16 17 19 20 22 23
45 42 43 43 42 37 37 36 32 26 26 19 14 21 12 14 14 6 16 17 13 13 22 22 21 19 17 16 16 17 15 15 17 15 13 12 10 11 11 12 11 11 12 13 14 16 18 20 20
46 48 48 47 45 42 41 37 36 34 28 33 36 27 22 24 21 9 15 19 17 14 26 26 25 23 20 19 19 17 15 16 15 13 11 12 12 9 7 7 8 10 10 10 13 16 17 19 20
53 54 52 49 44 46 44 40 40 40 40 39 42 33 23 28 27 20 13 19 23 20 26 29 29 27 24 22 20 18 17 17 15 11 10 10 10 8 6 5 6 7 8 8 10 12 14 16 17
61 56 54 49 45 42 46 45 45 46 46 46 43 36 37 31 24 14 13 22 24 26 22 34 33 30 28 25 23 21 20 18 17 15 12 11 9 8 6 5 4 5 7 8 9 10 13 14 15
58 55 54 51 46 42 50 51 46 49 53 51 45 35 32 31 24 19 17 21 25 29 25 36 36 34 32 28 26 24 23 20 18 17 15 13 10 8 6 3 1 2 4 6 8 10 11 12 13
62 61 55 54 52 54 60 49 53 56 56 53 47 39 35 32 29 26 24 22 24 28 29 32 40 37 34 30 27 26 24 22 20 18 17 13 11 9 7 4 2 4 7 9 11 12 13 14 14
64 54 57 59 60 59 55 52 49 43 37 43 42 42 37 36 38 39 28 20 28 27 34 29 42 40 37 33 32 29 27 25 23 21 18 17 15 12 9 7 5 5 7 9 10 11 11 13 17
61 63 60 55 56 54 54 50 44 39 38 42 42 40 43 43 41 38 27 25 28 31 35 32 42 44 40 37 34 33 30 27 25 21 19 18 16 13 9 8 6 7 9 10 13 15 16 17 21
66 62 59 59 58 54 53 49 45 42 42 41 44 42 47 47 44 40 34 29 24 29 36 36 43 47 45 43 39 35 34 31 26 22 20 19 16 13 12 11 11 11 13 14 17 19 22 23 24
70 63 63 56 55 53 54 50 44 42 41 41 45 48 46 54 49 42 37 30 26 29 32 41 45 49 47 43 38 39 37 33 27 23 19 18 17 16 17 18 17 17 18 19 22 24 25 25 28
Wind_Direction
191 189 180 194 29 324 249 234 160 207 244 243 251 285 312 314 323 331 334 334 332 325 341 343 348 345 337 350 16 33 102 55 16 11 13 10 9 22 125 137 145 134 113 84 81 34 29 57 38
195 190 200 212 184 84 110 186 182 218 257 275 283 291 298 305 321 331 331 334 328 333 336 344 347 346 345 359 24 111 90 36 18 22 26 25 33 79 119 127 137 137 120 103 36 352 346 23 349
196 193 209 217 226 217 216 210 265 253 264 278 297 298 303 303 309 318 333 331 324 322 331 342 345 346 354 12 53 114 73 29 23 38 36 34 64 102 111 118 132 131 123 45 352 25 53 36 12
201 213 222 232 231 248 246 240 258 266 267 278 294 298 300 302 311 318 321 323 325 322 327 334 341 338 350 32 111 114 56 23 35 50 54 56 77 92 103 115 119 125 108 61 62 45 41 43 32
196 206 221 233 236 256 248 253 262 266 269 281 286 291 296 302 307 309 316 320 320 318 327 331 337 333 352 78 123 101 34 39 56 65 68 71 74 77 83 88 90 91 93 82 65 52 51 52 36
212 221 235 240 247 239 249 254 262 269 280 278 283 289 290 298 305 309 311 316 319 315 324 331 331 334 37 118 113 92 55 61 77 75 78 72 79 84 85 89 84 81 79 69 57 53 53 49 44
219 230 244 286 270 252 249 250 258 270 278 282 285 289 292 298 300 304 309 313 314 319 326 331 326 348 132 135 112 87 59 89 81 84 83 68 68 78 86 87 84 71 55 50 47 49 49 48 49
216 236 267 172 193 221 248 251 262 266 279 285 291 291 293 294 299 304 307 310 311 317 320 331 320 132 150 131 116 61 65 89 89 72 73 60 49 58 58 57 60 55 44 44 43 43 47 49 51
212 228 267 228 218 208 214 251 274 287 287 289 288 289 295 298 301 304 305 306 308 312 314 319 245 147 162 129 105 56 83 97 90 83 56 55 55 58 52 60 59 61 56 64 65 57 50 52 58
214 213 228 245 228 242 253 263 290 293 288 288 288 290 299 303 305 304 305 306 308 305 298 217 162 158 163 129 85 66 105 113 92 89 58 59 73 79 85 79 71 66 69 76 72 66 59 59 61
225 222 230 243 250 253 261 271 290 283 291 284 293 298 300 303 307 311 310 306 295 281 212 158 159 164 147 127 58 77 113 120 104 90 78 76 84 88 89 68 79 75 68 66 66 68 67 74 80
231 229 230 239 247 254 259 266 278 289 292 303 298 301 306 313 318 319 310 293 228 177 181 158 155 159 141 109 63 98 119 117 122 110 93 86 84 81 79 73 79 64 64 75 72 77 83 83 88
235 231 232 236 239 247 254 260 243 270 275 298 299 307 315 326 326 319 318 130 172 176 162 161 149 145 133 121 88 115 121 119 122 114 98 101 90 82 77 76 80 69 80 80 84 89 86 85 90
231 226 224 228 234 240 243 253 255 259 274 272 287 308 322 333 323 332 38 62 188 181 159 162 142 140 131 117 116 126 122 123 128 114 107 94 89 93 87 89 83 90 88 92 90 85 89 86 89
242 233 227 230 233 216 253 251 240 252 268 257 308 320 335 338 341 37 40 229 187 181 165 160 141 135 130 134 128 132 126 123 123 117 110 111 105 95 93 92 87 88 89 92 86 84 86 96 86
246 249 241 231 229 230 237 242 239 249 271 292 301 343 341 344 341 141 154 198 196 187 176 155 142 137 135 136 140 139 130 126 129 127 120 113 107 106 102 89 85 82 100 83 74 68 62 72 82
249 249 245 246 236 240 249 246 255 260 275 292 298 340 347 351 345 172 160 205 220 190 184 157 144 141 142 139 146 142 137 135 132 129 128 122 116 111 106 103 95 87 94 90 77 71 57 46 61
238 240 242 246 251 252 256 256 261 263 291 278 236 322 337 347 0 205 173 198 231 204 183 164 151 145 143 143 148 147 142 144 140 135 130 124 118 114 110 106 102 93 86 76 73 53 53 52 73
245 248 251 253 251 252 254 259 256 267 269 238 226 269 310 317 344 220 197 183 221 211 186 166 159 153 145 148 152 154 151 148 152 144 131 123 116 115 113 110 101 89 80 71 59 51 48 51 63
242 245 250 251 250 249 251 252 256 260 269 253 210 249 272 297 312 268 211 186 210 209 189 174 167 166 152 146 159 152 155 154 149 149 144 131 124 119 109 105 100 92 71 57 51 47 43 48 53
242 244 246 241 241 234 241 248 257 258 247 218 188 252 282 250 295 289 213 200 196 210 193 183 175 171 164 161 161 162 164 167 159 159 157 156 139 127 126 115 106 81 73 61 45 42 40 43 43
241 239 241 240 240 240 242 247 252 255 245 245 232 236 245 262 270 277 234 205 190 219 196 188 183 179 174 176 178 175 169 174 178 174 166 162 165 154 147 125 100 79 68 53 47 38 40 42 41
235 236 237 238 239 238 243 245 253 253 252 241 241 239 235 246 242 246 241 209 199 205 213 197 188 185 184 183 182 176 175 182 187 189 179 168 166 168 167 139 99 84 70 52 41 36 36 32 30
236 239 241 242 243 241 242 243 248 251 245 245 241 234 235 231 212 235 230 234 211 202 213 206 197 189 191 193 186 184 183 187 188 183 182 173 169 164 153 145 103 63 41 32 25 16 15 13 11
241 244 246 245 243 236 238 238 238 236 239 240 239 225 222 236 234 229 236 233 225 211 213 217 202 194 195 198 197 191 190 190 190 190 187 187 188 187 186 183 156 34 8 358 349 343 342 340 342
234 235 236 234 232 230 235 236 233 239 239 240 238 234 223 225 238 230 231 228 228 216 211 218 209 197 200 200 203 201 195 191 191 197 200 202 209 219 225 234 265 316 318 314 316 315 313 313 316
230 233 233 229 231 234 240 236 239 246 247 248 245 241 227 208 227 230 229 227 225 218 213 217 213 202 199 199 208 209 201 194 199 206 212 219 224 233 246 259 259 280 283 296 323 327 326 327 323
222 224 227 227 231 233 235 238 238 240 237 236 238 237 219 213 221 226 220 225 223 219 217 212 214 209 203 201 206 208 207 206 211 217 225 227 231 238 249 253 267 279 291 305 314 313 305 309 317
222 224 223 223 223 226 231 237 236 236 235 232 231 227 222 218 217 225 223 219 221 219 216 211 215 212 207 206 206 207 212 216 221 227 235 240 242 242 225 229 247 270 293 301 311 315 317 322 326
219 219 220 218 228 231 235 238 237 236 235 231 230 227 218 218 214 222 224 221 223 217 218 212 214 215 212 211 209 211 216 222 226 231 239 240 243 240 224 233 252 272 283 302 314 318 321 323 319